Yuma MCAS, AZ

6:06 PM MST on July 27, 2017 (GMT -0700)
Yuma Marine Corps Air Station

Weather History for KNYL - April, 2012

Change the Weather History Date:

Tuesday, April 3, 2012

  Actual Average Record
Temperature  
Mean Temperature 68 °F 70 °F  
Max Temperature 85 °F 83 °F 103 °F (1961)
Min Temperature 51 °F 57 °F 41 °F (1977)
Degree Days  
Heating Degree Days 0 1  
Month to date heating degree days 0 3  
Since 1 July heating degree days 688 676  
Cooling Degree Days 3 6  
Month to date cooling degree days 7 17  
Year to date cooling degree days 108 170  
Growing Degree Days 18 (Base 50)    
Moisture  
Dew Point 18 °F    
Average Humidity 17    
Maximum Humidity 28    
Minimum Humidity 6    
Precipitation  
Precipitation 0.00 in 0.00 in 1.07 in (1965)
Month to date precipitation 0.00 0.02  
Year to date precipitation 0.04 1.11  
Sea Level Pressure  
Sea Level Pressure 29.91 in    
Wind  
Wind Speed 6 mph (WNW)    
Max Wind Speed 17 mph    
Max Gust Speed 22 mph    
Visibility 10 miles    
Events      
T = Trace of Precipitation, MM = Missing Value Source: NWS Daily Summary

Daily Weather History Graph

Daily Weather History Graph

Search for Another Location

Airport or City:

Trip Planner

Search our weather history database for the weather conditions in past years. The results will help you decide how hot, cold, wet, or windy it might be!

Date:

Astronomy

Apr. 03, 2012 Rise Set
Actual Time 6:23 AM MST 7:00 PM MST
Civil Twilight 5:58 AM MST 7:25 PM MST
Nautical Twilight 5:29 AM MST 7:54 PM MST
Astronomical Twilight 4:59 AM MST 8:24 PM MST
Moon 3:57 PM MST (4/3) 4:02 AM MST (4/3)
Length of Visible Light 13h 26m
Length of Day
12h 37m
Waxing Gibbous, 87% of the Moon is Illuminated
Apr 3
Waxing Gibbous
Apr 6
Full
Apr 13
Last Quarter
Apr 21
New
Apr 29
First Quarter

Hourly Weather History & Observations

Time (MST) Temp. Dew Point Humidity Pressure Visibility Wind Dir Wind Speed Gust Speed Precip Events Conditions
12:55 AM 63.0 °F 10.0 °F 13% 29.91 in 10.0 mi NW 4.6 mph - N/A   Clear
1:55 AM 59.0 °F 19.0 °F 21% 29.91 in 10.0 mi NW 4.6 mph - N/A   Clear
2:55 AM 54.0 °F 21.9 °F 29% 29.91 in 10.0 mi Calm Calm - N/A   Clear
3:55 AM 53.1 °F 19.9 °F 27% 29.92 in 10.0 mi Calm Calm - N/A   Clear
4:55 AM 54.0 °F 21.0 °F 28% 29.93 in 10.0 mi NW 3.5 mph - N/A   Clear
5:55 AM 53.1 °F 19.9 °F 27% 29.94 in 10.0 mi SE 4.6 mph - N/A   Clear
6:55 AM 55.0 °F 19.9 °F 25% 29.95 in 9.0 mi ENE 3.5 mph - N/A   Partly Cloudy
7:55 AM 63.0 °F 12.9 °F 14% 29.97 in 10.0 mi Calm Calm - N/A   Partly Cloudy
8:55 AM 68.0 °F 10.0 °F 11% 29.98 in 10.0 mi NNE 5.8 mph - N/A   Partly Cloudy
9:55 AM 73.9 °F 16.0 °F 11% 29.98 in 10.0 mi NNE 12.7 mph 20.7 mph N/A   Partly Cloudy
10:55 AM 75.9 °F 16.0 °F 10% 29.98 in 10.0 mi North 13.8 mph - N/A   Partly Cloudy
11:55 AM 79.0 °F 12.9 °F 8% 29.95 in 10.0 mi North 13.8 mph 20.7 mph N/A   Partly Cloudy
12:55 PM 81.0 °F 14.0 °F 8% 29.93 in 10.0 mi North 12.7 mph 19.6 mph N/A   Partly Cloudy
1:55 PM 82.9 °F 12.0 °F 7% 29.90 in 10.0 mi NNW 11.5 mph - N/A   Scattered Clouds
2:55 PM 84.0 °F 10.9 °F 6% 29.88 in 10.0 mi NW 9.2 mph 18.4 mph N/A   Scattered Clouds
3:55 PM 82.9 °F 16.0 °F 8% 29.85 in 10.0 mi SW 10.4 mph - N/A   Scattered Clouds
4:55 PM 82.0 °F 15.1 °F 8% 29.84 in 10.0 mi West 9.2 mph - N/A   Scattered Clouds
5:55 PM 81.0 °F 18.0 °F 10% 29.83 in 10.0 mi WSW 11.5 mph - N/A   Scattered Clouds
6:55 PM 78.1 °F 23.0 °F 13% 29.84 in 10.0 mi SW 5.8 mph - N/A   Mostly Cloudy
7:55 PM 73.0 °F 24.1 °F 16% 29.85 in 10.0 mi SSW 4.6 mph - N/A   Scattered Clouds
8:55 PM 71.1 °F 23.0 °F 16% 29.88 in 10.0 mi SW 3.5 mph - N/A   Scattered Clouds
9:55 PM 66.9 °F 26.1 °F 21% 29.90 in 10.0 mi WSW 3.5 mph - N/A   Scattered Clouds
10:55 PM 64.9 °F 28.0 °F 25% 29.89 in 10.0 mi Calm Calm - N/A   Partly Cloudy
11:55 PM 64.9 °F 24.1 °F 21% 29.90 in 10.0 mi Calm Calm - N/A   Clear